User: anonymous   Login
Location: Ladrillo (historical)
(32.8195°N, 117.2231°W)
Time: 13:52:37
(UTC+00:00)
Language:

Vanguard 3 - Orbit

View from above orbital plane
View from above orbital plane
View from above satellite
View from above satellite

Ground track
Ground track

The orbit data is extracted from the following two-line orbital elements,

1 00020U 59007A   21125.35002560  .00000005  00000-0 -53968-5 0  9997
2 00020  33.3427 115.1766 1666365 174.4590 187.7201 11.55805289267854
Epoch (UTC): 05 May 2021 08:24:02
Eccentricity: 0.1666365
inclination: 33.3427°
perigee height: 508 km
apogee height: 3262 km
right ascension of ascending node: 115.1766°
argument of perigee: 174.4590°
revolutions per day: 11.55805289
mean anomaly at epoch: 187.7201°
orbit number at epoch: 26785

The dashed part of the orbit path shows where the satellite is in the earth's shadow,  

DLR